Regional Weather Roundup
Issued by NWS Little Rock, AR

Home | Current Version | Previous Version | Text Only | Print | Product List | Glossary Off
Versions: 1 2 3 4 5 6 7 8 9 10 11 12 13 14 15 16 17 18 19 20 21 22 23 24 25 26 27 28 29 30 31 32

000
ASUS44 KLZK 131205
RWRLZK

WEATHER ROUNDUP FOR ARKANSAS
NATIONAL WEATHER SERVICE LITTLE ROCK AR
600 AM CST WED DEC 13 2017

NOTE: "FAIR" INDICATES FEW OR NO CLOUDS BELOW 12,000 FEET WITH NO
SIGNIFICANT WEATHER AND/OR OBSTRUCTIONS TO VISIBILITY.

ARZ001-003-010-029-131300-
NORTHWEST ARKANSAS

CITY           SKY/WX    TMP DP  RH WIND       PRES   REMARKS
FAYETTEVILLE   CLEAR     38  23  55 S13       29.92F
6HR MIN TEMP:  23; 6HR MAX TEMP:  38;

FORT SMITH     PTCLDY    28  22  78 NE5       29.99F WCI  23
6HR MIN TEMP:  28; 6HR MAX TEMP:  32;

HARRISON       CLEAR     31  21  66 SE8       29.90F WCI  23
6HR MIN TEMP:  28; 6HR MAX TEMP:  32;

BENTONVILLE    CLEAR     33  20  58 S5        29.92F WCI  29
6HR MIN TEMP:  29; 6HR MAX TEMP:  35;

ROGERS         CLEAR     38  22  52 S14       29.90F
6HR MIN TEMP:  31; 6HR MAX TEMP:  38;

SILOAM SPGS    CLEAR     37  23  56 S14       29.91F
6HR MIN TEMP:  29; 6HR MAX TEMP:  37;

HIGHFILL       CLEAR     32  21  64 S8        29.90F WCI  25
6HR MIN TEMP:  27; 6HR MAX TEMP:  32;

SPRINGDALE     CLEAR     36  21  55 S7        29.92
$$

ARZ004-005-016-131300-
NORTH CENTRAL ARKANSAS

CITY           SKY/WX    TMP DP  RH WIND       PRES   REMARKS
BATESVILLE     CLOUDY    33  13  43 S3        29.99F
6HR MIN TEMP:  28; 6HR MAX TEMP:  34;

FLIPPIN        CLOUDY    28  17  63 S3        29.94F
6HR MIN TEMP:  24; 6HR MAX TEMP:  32;

MTN HOME       CLOUDY    30  16  56 S7        29.92F WCI  23
6HR MIN TEMP:  26; 6HR MAX TEMP:  32;

$$

ARZ040-041-131300-
WEST CENTRAL ARKANSAS

CITY           SKY/WX    TMP DP  RH WIND       PRES   REMARKS
MENA           PTCLDY    36  23  60 W7        30.02F
MOUNT IDA      CLOUDY    24  19  81 CALM      30.01F
6HR MIN TEMP:  24; 6HR MAX TEMP:  29;

$$

ARZ009-017-025-026-028-131300-
NORTHEAST ARKANSAS

CITY           SKY/WX    TMP DP  RH WIND       PRES   REMARKS
JONESBORO      CLEAR     30  20  66 SW6       30.01F WCI  24
6HR MIN TEMP:  26; 6HR MAX TEMP:  31;

NEWPORT        CLEAR     29  22  75 S10       30.02F WCI  20
6HR MIN TEMP:  26; 6HR MAX TEMP:  30;

WALNUT RIDGE   CLEAR     28  21  75 S9        29.99F WCI  19
6HR MIN TEMP:  26; 6HR MAX TEMP:  31;

BLYTHEVILLE    CLEAR     27  20  75 S7        30.02F WCI  19
6HR MIN TEMP:  25; 6HR MAX TEMP:  30;

$$

ARZ022-023-033-042-044-131300-
CENTRAL ARKANSAS

CITY           SKY/WX    TMP DP  RH WIND       PRES   REMARKS
LITTLE ROCK    PTCLDY    29  21  72 W5        30.06F WCI  24
6HR MIN TEMP:  27; 6HR MAX TEMP:  35;

N LITTLE ROCK    N/A     36  18  48 W5        30.07F
6HR MIN TEMP:  34; 6HR MAX TEMP:  38;

JACKSONVILLE   CLOUDY    23  19  84 CALM      30.03F
6HR MIN TEMP:  23; 6HR MAX TEMP:  28;

SEARCY         CLOUDY    22  21  96 SW3       30.05F
6HR MIN TEMP:  22; 6HR MAX TEMP:  28;

HOT SPRINGS    PTCLDY    30  24  78 CALM      30.05F
6HR MIN TEMP:  28; 6HR MAX TEMP:  34;

RUSSELLVILLE   CLOUDY    24  20  84 CALM      30.01F
6HR MIN TEMP:  24; 6HR MAX TEMP:  28;

CLINTON        FAIR      21  19  93 CALM      30.03F
$$

ARZ036-131300-
EAST ARKANSAS

CITY           SKY/WX    TMP DP  RH WIND       PRES   REMARKS
WEST MEMPHIS   CLOUDY    27  22  81 S6        30.05F WCI  20
6HR MIN TEMP:  23; 6HR MAX TEMP:  31;

$$

ARZ050-053-066-070-073-131300-
SOUTHWEST ARKANSAS

CITY           SKY/WX    TMP DP  RH WIND       PRES   REMARKS
ARKADELPHIA    FAIR      21  18  88 CALM      30.09F
6HR MIN TEMP:  21; 6HR MAX TEMP:  29;

CAMDEN         PTCLDY    25  21  86 CALM      30.09F
TEXARKANA      PTCLDY    32  24  72 SW5       30.08F WCI  27
6HR MIN TEMP:  31; 6HR MAX TEMP:  38;

EL DORADO      PTCLDY    28  26  92 CALM      30.11F
6HR MIN TEMP:  26; 6HR MAX TEMP:  32;

DE QUEEN       PTCLDY    23  23 100 E3        30.06F
6HR MIN TEMP:  23; 6HR MAX TEMP:  27;

$$

ARZ056-057-069-131300-
SOUTHEAST ARKANSAS

CITY           SKY/WX    TMP DP  RH WIND       PRES   REMARKS
PINE BLUFF     PTCLDY    28  21  75 CALM      30.08F
6HR MIN TEMP:  25; 6HR MAX TEMP:  31;

STUTTGART      PTCLDY    29  26  89 S6        30.07F WCI  23
6HR MIN TEMP:  27; 6HR MAX TEMP:  34;

MONTICELLO     CLOUDY    31  22  69 CALM      30.09F
6HR MIN TEMP:  28; 6HR MAX TEMP:  33;


$$






USA.gov is the U.S. government's official web portal to all federal, state and local government web resources and services.